{"data":{"norad_id":52601,"epoch":"2026-05-25T02:35:21.836832Z","epoch_age_seconds":59553,"freshness":"FRESH","line1":"1 52601U 22052D   26145.10789163 -.00000474  00000+0 -11691-4 0  9996","line2":"2 52601  53.2163 296.0637 0001508  82.0587 278.0577 15.08833578223194","mean_motion":15.08833578,"eccentricity":0.0001508,"inclination_deg":53.2163,"raan_deg":296.0637,"arg_perigee_deg":82.0587,"mean_anomaly_deg":278.0577,"bstar":-1.1691e-5,"rev_number":22319,"period_min":95.437960885571,"perigee_km":538.71979919577,"apogee_km":540.80623784136,"semimajor_km":6917.9000185186,"source":"CELESTRAK","updated_at":"2026-05-25T13:38:17.197024Z"}}